Retour au catalogue

OPS 5712

P/L 160

ActifMilitaireLEO
NORAD 2826·PAYLOAD·🇺🇸 United States

Lancé May 31, 1967 depuis Vandenberg Space Force Base

Loading…

Prochains Passages (prochaines 24 heures)

TLE

FraisSource: Space-Track

Époque: Sep 14, 2026, 13:43 UTC

1 02826U 67053A   26257.57168384  .00005644  00000-0  77800-3 0  9997
2 02826  69.9167 179.0276 0004066 271.7401  88.3282 14.78714414 79444

Suivez OPS 5712 en temps réel avec AllMySat

Download on the App Store